PROPCUBE 3

Last updated on Sun Jun 21 2026 00:03:50 GMT+0000 (Coordinated Universal Time)

1 40973U 15058K 26171.35489909 .00001989 00000+0 17337-3 0 9996 2 40973 64.7677 242.6387 0124207 58.6612 302.6588 14.94270594115271
UTC large
Height (km)
Speed (km/s)
/
Latitude / Longitude
Inclination (degrees)
Orbital Period (minutes)
Azimuth
Elevation
Range (km)
Doppler Factor

Next 0 passes for location: London (51.5072 / 0.1276)

No passes found over London.
PROPCUBE 3